GW4157 Weather Reports


time (UTC)temp
C
wind
direction
speed
KPH
gust
KPH
rain 1hr
cm
rain 24hr
cm
rain mn
cm
humidity
%
barometer
mb
20260503214541 13 213 4.8 20.9 0.00 0.00 0.00 41 1011.2
20260503213038 13 192 9.7 20.9 0.00 0.00 0.00 40 1011.1
20260503211537 13 197 4.8 16.1 0.00 0.00 0.00 41 1011.1
20260503210038 12 229 11.3 20.9 0.00 0.00 0.00 41 1011.2
20260503204537 13 168 11.3 20.9 0.00 0.00 0.00 40 1011.2
20260503203038 12 216 4.8 27.4 0.00 0.00 0.00 42 1011.3
20260503201537 12 167 6.4 29.0 0.00 0.00 0.00 41 1011.5
20260503200042 12 198 3.2 16.1 0.00 0.00 0.00 44 1011.7
20260503194539 12 213 8.0 22.5 0.00 0.00 0.00 40 1012.2
20260503193048 12 221 9.7 20.9 0.00 0.00 0.00 42 1012.3
20260503191539 12 273 6.4 19.3 0.00 0.00 0.00 42 1012.4
20260503190036 12 207 8.0 19.3 0.00 0.00 0.00 42 1012.6
20260503184544 11 271 9.7 25.7 0.00 0.00 0.00 43 1012.8
20260503183053 11 225 9.7 22.5 0.00 0.00 0.00 44 1013.0
20260503181539 11 212 11.3 22.5 0.00 0.00 0.00 42 1013.0
20260503180038 11 202 12.9 24.1 0.00 0.00 0.00 42 1013.1
20260503174537 11 242 11.3 24.1 0.00 0.00 0.00 45 1013.1
20260503173037 11 223 11.3 25.7 0.00 0.00 0.00 41 1013.1
20260503171539 11 230 9.7 25.7 0.00 0.00 0.00 48 1013.4
20260503081545 -1 0 0.0 3.2 0.00 0.03 0.00 89 1013.5
20260503071535 -1 0 0.0 3.2 0.00 0.03 0.00 86 1013.6
20260503054543 -1 0 0.0 0.0 0.00 0.03 0.00 87 1013.9
20260503053034 -1 0 0.0 0.0 0.00 0.03 0.00 87 1014.0
20260503051537 -1 0 0.0 0.0 0.00 0.03 0.00 85 1014.0
20260503050039 0 0 0.0 0.0 0.00 0.03 0.00 83 1014.1
20260503044533 0 0 0.0 0.0 0.00 0.03 0.00 80 1014.2
20260503043034 0 0 0.0 3.2 0.00 0.03 0.00 78 1014.2
20260503041535 1 0 0.0 1.6 0.00 0.03 0.00 77 1014.3
20260503040045 1 0 0.0 3.2 0.00 0.03 0.00 77 1014.3
20260503034539 1 0 0.0 3.2 0.00 0.03 0.03 76 1014.3
20260503033042 1 0 0.0 0.0 0.00 0.03 0.03 75 1014.4
20260503031546 1 0 0.0 3.2 0.00 0.03 0.03 75 1014.4
20260503030040 1 0 0.0 3.2 0.00 0.03 0.03 74 1014.5
20260503024542 1 0 0.0 3.2 0.00 0.03 0.03 73 1014.4
20260503023036 2 261 0.0 3.2 0.00 0.03 0.03 71 1014.6
20260503021535 2 261 1.6 4.8 0.00 0.03 0.03 70 1014.6
20260503020035 2 0 0.0 3.2 0.00 0.03 0.03 69 1014.5
20260503014541 2 302 1.6 4.8 0.00 0.03 0.03 68 1014.4
20260503013039 2 255 1.6 6.4 0.00 0.03 0.03 67 1014.5
20260503011541 2 0 0.0 4.8 0.00 0.03 0.03 68 1014.4
20260503010035 2 320 1.6 6.4 0.00 0.03 0.03 66 1014.3
20260503004536 3 279 0.0 3.2 0.00 0.05 0.03 67 1014.1
20260503003040 3 250 1.6 4.8 0.00 0.05 0.03 65 1014.0
20260503001540 3 282 3.2 9.7 0.00 0.05 0.03 63 1014.0
20260503000036 3 282 1.6 11.3 0.00 0.05 0.03 64 1013.9
20260502234536 3 0 1.6 4.8 0.00 0.05 0.03 66 1013.8
20260502233043 3 271 1.6 9.7 0.00 0.05 0.03 63 1013.8
20260502231553 3 318 6.4 12.9 0.00 0.05 0.03 60 1013.8
20260502230042 4 227 3.2 9.7 0.00 0.05 0.03 62 1013.7
20260502224538 4 287 3.2 12.9 0.00 0.08 0.03 61 1013.7
20260502223044 4 219 4.8 16.1 0.00 0.08 0.03 59 1013.6
20260502221536 4 250 3.2 14.5 0.00 0.08 0.03 60 1013.6
20260502220045 4 281 6.4 11.3 0.00 0.08 0.03 59 1013.6